Tracking 20083 objects as of 10-Dec-2019
HD Live streaming from Space Station
objects crossing your sky now

AQT-D

Track AQT-D now!
10-day predictions


NORAD ID: 44791
Int'l Code: 1998-067QU
Perigee: 418.8 km
Apogee: 424.2 km
Inclination: 51.6 °
Period: 92.9 minutes
Semi major axis: 6792 km
RCS: Unknown
Launch date: November 20, 1998
Source: Japan (JPN)
Launch site: TYURATAM MISSILE AND SPACE COMPLEX (TTMTR)
aabbcc
Your satellite tracking list
Your tracking list is empty




NASA's NSSDC Master Catalog

Two Line Element Set (TLE):
1 44791U 98067QW  19344.18137703  .00000700  00000-0  19753-4 0  9992
2 44791  51.6429 208.6798 0003960  23.0839 337.0327 15.50815744  3083
Source of the keplerian elements: AFSPC